| time (UTC) | temp C | wind direction | speed KPH | gust KPH | rain 1hr cm | rain 24hr cm | rain mn cm | humidity % | barometer mb |
| 20260510153817 | 13 | 261 | 4.8 | 8.0 | 0.00 | 0.00 | 0.00 | 86 | 1027.8 |
| 20260510153317 | 13 | 225 | 4.8 | 11.3 | 0.00 | 0.00 | 0.00 | 87 | 1027.8 |
| 20260510152817 | 13 | 238 | 4.8 | 11.3 | 0.00 | 0.00 | 0.00 | 87 | 1027.6 |
| 20260510152318 | 12 | 239 | 3.2 | 11.3 | 0.00 | 0.00 | 0.00 | 87 | 1027.6 |
| 20260510151812 | 12 | 234 | 4.8 | 11.3 | 0.00 | 0.00 | 0.00 | 87 | 1027.7 |
| 20260510151312 | 12 | 271 | 4.8 | 11.3 | 0.00 | 0.00 | 0.00 | 87 | 1027.7 |
| 20260510150811 | 12 | 267 | 3.2 | 9.7 | 0.00 | 0.00 | 0.00 | 87 | 1027.4 |
| 20260510150310 | 12 | 265 | 3.2 | 9.7 | 0.00 | 0.00 | 0.00 | 87 | 1027.4 |
| 20260510145811 | 12 | 265 | 3.2 | 9.7 | 0.00 | 0.00 | 0.00 | 88 | 1027.2 |
| 20260510145312 | 12 | 229 | 3.2 | 8.0 | 0.00 | 0.00 | 0.00 | 88 | 1027.4 |
| 20260510144808 | 12 | 241 | 1.6 | 4.8 | 0.00 | 0.00 | 0.00 | 88 | 1027.3 |
| 20260510144307 | 12 | 256 | 1.6 | 4.8 | 0.00 | 0.00 | 0.00 | 88 | 1027.0 |
| 20260510143804 | 11 | 265 | 0.0 | 4.8 | 0.00 | 0.00 | 0.00 | 89 | 1027.1 |
| 20260510143310 | 11 | 194 | 0.0 | 4.8 | 0.00 | 0.00 | 0.00 | 89 | 1027.1 |
| 20260510142805 | 11 | 192 | 0.0 | 1.6 | 0.00 | 0.00 | 0.00 | 90 | 1027.1 |
| 20260510142306 | 11 | 192 | 0.0 | 1.6 | 0.00 | 0.00 | 0.00 | 90 | 1026.7 |
| 20260510141803 | 11 | 192 | 0.0 | 1.6 | 0.00 | 0.00 | 0.00 | 91 | 1026.6 |
| 20260510141303 | 10 | 191 | 0.0 | 1.6 | 0.00 | 0.00 | 0.00 | 91 | 1026.8 |
| 20260510140804 | 10 | 181 | 0.0 | 0.0 | 0.00 | 0.00 | 0.00 | 91 | 1026.7 |
| 20260510140300 | 10 | 181 | 0.0 | 0.0 | 0.00 | 0.00 | 0.00 | 91 | 1026.6 |
| 20260510135758 | 10 | 181 | 0.0 | 0.0 | 0.00 | 0.00 | 0.00 | 91 | 1026.4 |
| 20260510135300 | 10 | 182 | 0.0 | 0.0 | 0.00 | 0.00 | 0.00 | 91 | 1026.4 |
| 20260510134752 | 10 | 181 | 0.0 | 0.0 | 0.00 | 0.00 | 0.00 | 91 | 1026.4 |
| 20260510134252 | 10 | 182 | 0.0 | 0.0 | 0.00 | 0.00 | 0.00 | 91 | 1026.2 |
| 20260510133748 | 10 | 181 | 0.0 | 0.0 | 0.00 | 0.00 | 0.00 | 91 | 1026.3 |
| 20260510133246 | 10 | 181 | 0.0 | 0.0 | 0.00 | 0.00 | 0.00 | 91 | 1026.3 |
| 20260510132746 | 10 | 182 | 0.0 | 0.0 | 0.00 | 0.00 | 0.00 | 91 | 1026.4 |
| 20260510132243 | 10 | 182 | 0.0 | 0.0 | 0.00 | 0.00 | 0.00 | 91 | 1026.4 |
| 20260510131743 | 10 | 181 | 0.0 | 0.0 | 0.00 | 0.00 | 0.00 | 91 | 1026.4 |
| 20260510131244 | 10 | 182 | 0.0 | 0.0 | 0.00 | 0.00 | 0.00 | 90 | 1026.6 |
| 20260510130743 | 10 | 181 | 0.0 | 0.0 | 0.00 | 0.00 | 0.00 | 90 | 1026.4 |
| 20260510130241 | 10 | 182 | 0.0 | 0.0 | 0.00 | 0.00 | 0.00 | 90 | 1026.4 |
| 20260510125742 | 10 | 181 | 0.0 | 0.0 | 0.00 | 0.00 | 0.00 | 90 | 1026.2 |
| 20260510125236 | 10 | 182 | 0.0 | 0.0 | 0.00 | 0.00 | 0.00 | 90 | 1026.1 |
| 20260510124735 | 10 | 181 | 0.0 | 0.0 | 0.00 | 0.00 | 0.00 | 90 | 1026.1 |
| 20260510124235 | 10 | 182 | 0.0 | 0.0 | 0.00 | 0.00 | 0.00 | 90 | 1026.2 |
| 20260510123734 | 10 | 180 | 0.0 | 0.0 | 0.00 | 0.00 | 0.00 | 90 | 1026.0 |
| 20260510123234 | 10 | 182 | 0.0 | 0.0 | 0.00 | 0.00 | 0.00 | 90 | 1026.0 |
| 20260510122734 | 10 | 205 | 0.0 | 0.0 | 0.00 | 0.00 | 0.00 | 90 | 1026.4 |
| 20260510122233 | 10 | 205 | 0.0 | 0.0 | 0.00 | 0.00 | 0.00 | 90 | 1026.3 |
| 20260510121732 | 10 | 205 | 0.0 | 1.6 | 0.00 | 0.00 | 0.00 | 90 | 1026.2 |
| 20260510121232 | 10 | 205 | 0.0 | 1.6 | 0.00 | 0.00 | 0.00 | 90 | 1026.0 |
| 20260510120734 | 10 | 206 | 0.0 | 1.6 | 0.00 | 0.00 | 0.00 | 90 | 1026.1 |
| 20260510120232 | 10 | 205 | 0.0 | 1.6 | 0.00 | 0.00 | 0.00 | 90 | 1026.1 |
| 20260510115733 | 10 | 205 | 0.0 | 1.6 | 0.00 | 0.00 | 0.00 | 90 | 1026.0 |
| 20260510115233 | 11 | 267 | 0.0 | 0.0 | 0.00 | 0.00 | 0.00 | 90 | 1026.0 |
| 20260510114729 | 11 | 267 | 0.0 | 0.0 | 0.00 | 0.00 | 0.00 | 90 | 1026.1 |
| 20260510114230 | 11 | 267 | 0.0 | 0.0 | 0.00 | 0.00 | 0.00 | 89 | 1026.1 |
| 20260510113729 | 11 | 267 | 0.0 | 0.0 | 0.00 | 0.00 | 0.00 | 90 | 1025.9 |
| 20260510113228 | 11 | 267 | 0.0 | 0.0 | 0.00 | 0.00 | 0.00 | 90 | 1025.9 |
| 20260510112729 | 11 | 267 | 0.0 | 0.0 | 0.00 | 0.00 | 0.00 | 89 | 1025.9 |
| 20260510112228 | 11 | 268 | 0.0 | 0.0 | 0.00 | 0.00 | 0.00 | 89 | 1025.9 |
| 20260510111725 | 11 | 268 | 0.0 | 3.2 | 0.00 | 0.00 | 0.00 | 89 | 1026.1 |
| 20260510111224 | 11 | 267 | 0.0 | 3.2 | 0.00 | 0.00 | 0.00 | 90 | 1026.1 |
| 20260510110725 | 11 | 267 | 0.0 | 3.2 | 0.00 | 0.00 | 0.00 | 90 | 1026.0 |
| 20260510110225 | 10 | 267 | 0.0 | 3.2 | 0.00 | 0.00 | 0.00 | 90 | 1026.0 |
| 20260510105724 | 10 | 268 | 0.0 | 1.6 | 0.00 | 0.00 | 0.00 | 90 | 1026.0 |
| 20260510105226 | 11 | 268 | 0.0 | 0.0 | 0.00 | 0.00 | 0.00 | 89 | 1025.8 |
| 20260510104721 | 11 | 267 | 0.0 | 3.2 | 0.00 | 0.00 | 0.00 | 89 | 1025.7 |
| 20260510104220 | 11 | 267 | 0.0 | 3.2 | 0.00 | 0.00 | 0.00 | 90 | 1025.6 |
| 20260510103721 | 11 | 267 | 0.0 | 0.0 | 0.00 | 0.00 | 0.00 | 90 | 1025.6 |
| 20260510103220 | 11 | 267 | 0.0 | 0.0 | 0.00 | 0.00 | 0.00 | 90 | 1025.6 |
| 20260510102720 | 11 | 268 | 0.0 | 0.0 | 0.00 | 0.00 | 0.00 | 90 | 1025.7 |
| 20260510102221 | 11 | 267 | 0.0 | 0.0 | 0.00 | 0.00 | 0.00 | 90 | 1025.6 |
| 20260510101718 | 11 | 267 | 0.0 | 0.0 | 0.00 | 0.00 | 0.00 | 90 | 1025.5 |
| 20260510101216 | 11 | 267 | 0.0 | 0.0 | 0.00 | 0.00 | 0.00 | 89 | 1025.4 |
| 20260510100716 | 11 | 267 | 0.0 | 0.0 | 0.00 | 0.00 | 0.00 | 89 | 1025.3 |
| 20260510100216 | 11 | 267 | 0.0 | 0.0 | 0.00 | 0.00 | 0.00 | 88 | 1025.1 |
| 20260510095716 | 11 | 267 | 0.0 | 0.0 | 0.00 | 0.00 | 0.00 | 88 | 1024.9 |
| 20260510095217 | 11 | 267 | 0.0 | 0.0 | 0.00 | 0.00 | 0.00 | 88 | 1024.9 |
| 20260510094716 | 11 | 267 | 0.0 | 0.0 | 0.00 | 0.00 | 0.00 | 88 | 1024.8 |
| 20260510094217 | 11 | 267 | 0.0 | 0.0 | 0.00 | 0.00 | 0.00 | 88 | 1024.6 |
| 20260510093711 | 11 | 267 | 0.0 | 1.6 | 0.00 | 0.00 | 0.00 | 88 | 1024.7 |
| 20260510093209 | 11 | 267 | 0.0 | 1.6 | 0.00 | 0.00 | 0.00 | 88 | 1024.6 |
| 20260510092707 | 11 | 267 | 0.0 | 3.2 | 0.00 | 0.00 | 0.00 | 88 | 1024.7 |
| 20260510092204 | 11 | 267 | 0.0 | 3.2 | 0.00 | 0.00 | 0.00 | 89 | 1024.9 |
| 20260510091703 | 11 | 267 | 0.0 | 0.0 | 0.00 | 0.00 | 0.00 | 89 | 1024.9 |
| 20260510091200 | 12 | 267 | 0.0 | 0.0 | 0.00 | 0.00 | 0.00 | 89 | 1024.8 |
| 20260510090658 | 12 | 267 | 0.0 | 1.6 | 0.00 | 0.00 | 0.00 | 88 | 1024.8 |
| 20260510090159 | 12 | 267 | 0.0 | 1.6 | 0.00 | 0.00 | 0.00 | 88 | 1024.7 |
| 20260510085658 | 12 | 267 | 0.0 | 1.6 | 0.00 | 0.00 | 0.00 | 88 | 1024.7 |
| 20260510085156 | 12 | 267 | 0.0 | 1.6 | 0.00 | 0.00 | 0.00 | 87 | 1024.8 |
| 20260510084656 | 12 | 267 | 0.0 | 1.6 | 0.00 | 0.00 | 0.00 | 87 | 1024.8 |
| 20260510084155 | 12 | 267 | 0.0 | 0.0 | 0.00 | 0.00 | 0.00 | 87 | 1024.8 |
| 20260510083652 | 12 | 267 | 0.0 | 0.0 | 0.00 | 0.00 | 0.00 | 86 | 1024.5 |
| 20260510083153 | 12 | 267 | 0.0 | 0.0 | 0.00 | 0.00 | 0.00 | 85 | 1024.5 |
| 20260510082654 | 13 | 267 | 0.0 | 0.0 | 0.00 | 0.00 | 0.00 | 85 | 1024.5 |
| 20260510082150 | 13 | 267 | 0.0 | 0.0 | 0.00 | 0.00 | 0.00 | 85 | 1024.5 |
| 20260510081649 | 13 | 267 | 0.0 | 1.6 | 0.00 | 0.00 | 0.00 | 85 | 1024.5 |
| 20260510081144 | 13 | 267 | 0.0 | 1.6 | 0.00 | 0.00 | 0.00 | 84 | 1024.6 |
| 20260510080642 | 13 | 267 | 0.0 | 0.0 | 0.00 | 0.00 | 0.00 | 84 | 1024.7 |
| 20260510080142 | 13 | 269 | 0.0 | 0.0 | 0.00 | 0.00 | 0.00 | 84 | 1024.6 |
| 20260510075638 | 13 | 268 | 0.0 | 0.0 | 0.00 | 0.00 | 0.00 | 83 | 1024.6 |
| 20260510075139 | 14 | 267 | 0.0 | 1.6 | 0.00 | 0.00 | 0.00 | 83 | 1024.6 |
| 20260510074633 | 14 | 267 | 0.0 | 1.6 | 0.00 | 0.00 | 0.00 | 83 | 1024.6 |
| 20260510074132 | 14 | 267 | 0.0 | 3.2 | 0.00 | 0.00 | 0.00 | 83 | 1024.6 |
| 20260510073632 | 14 | 267 | 1.6 | 3.2 | 0.00 | 0.00 | 0.00 | 83 | 1024.6 |
| 20260510073132 | 14 | 267 | 0.0 | 3.2 | 0.00 | 0.00 | 0.00 | 82 | 1024.5 |
| 20260510072632 | 14 | 263 | 0.0 | 3.2 | 0.00 | 0.00 | 0.00 | 82 | 1024.6 |
| 20260510072132 | 14 | 263 | 0.0 | 4.8 | 0.00 | 0.00 | 0.00 | 82 | 1024.6 |
| 20260510071628 | 14 | 263 | 0.0 | 4.8 | 0.00 | 0.00 | 0.00 | 82 | 1024.6 |
| 20260510071128 | 15 | 341 | 0.0 | 4.8 | 0.00 | 0.00 | 0.00 | 81 | 1024.5 |
| 20260510070626 | 15 | 346 | 0.0 | 4.8 | 0.00 | 0.00 | 0.00 | 81 | 1024.4 |
| 20260510070126 | 15 | 325 | 0.0 | 3.2 | 0.00 | 0.00 | 0.00 | 81 | 1024.5 |
| 20260510065627 | 15 | 288 | 0.0 | 1.6 | 0.00 | 0.00 | 0.00 | 81 | 1024.6 |
| 20260510065126 | 14 | 261 | 0.0 | 1.6 | 0.00 | 0.00 | 0.00 | 81 | 1024.5 |
| 20260510064621 | 15 | 262 | 0.0 | 1.6 | 0.00 | 0.00 | 0.00 | 80 | 1024.4 |
| 20260510064121 | 15 | 261 | 0.0 | 1.6 | 0.00 | 0.00 | 0.00 | 80 | 1024.4 |
| 20260510063620 | 15 | 261 | 0.0 | 1.6 | 0.00 | 0.00 | 0.00 | 80 | 1024.4 |
| 20260510063121 | 15 | 261 | 0.0 | 1.6 | 0.00 | 0.00 | 0.00 | 79 | 1024.3 |
| 20260510062618 | 15 | 261 | 0.0 | 0.0 | 0.00 | 0.00 | 0.00 | 78 | 1024.3 |
| 20260510062119 | 15 | 261 | 0.0 | 0.0 | 0.00 | 0.00 | 0.00 | 77 | 1024.2 |
| 20260510061614 | 16 | 262 | 0.0 | 0.0 | 0.00 | 0.00 | 0.00 | 76 | 1024.3 |
| 20260510061110 | 16 | 262 | 0.0 | 0.0 | 0.00 | 0.00 | 0.00 | 75 | 1024.2 |
| 20260510060610 | 16 | 261 | 0.0 | 0.0 | 0.00 | 0.00 | 0.00 | 75 | 1024.2 |
| 20260510060110 | 16 | 261 | 0.0 | 0.0 | 0.00 | 0.00 | 0.00 | 74 | 1024.2 |
| 20260510055610 | 16 | 261 | 0.0 | 0.0 | 0.00 | 0.00 | 0.00 | 74 | 1024.2 |
| 20260510055110 | 17 | 261 | 0.0 | 0.0 | 0.00 | 0.00 | 0.00 | 73 | 1024.0 |
| 20260510054609 | 17 | 261 | 0.0 | 1.6 | 0.00 | 0.00 | 0.00 | 73 | 1024.1 |
| 20260510054108 | 17 | 261 | 0.0 | 3.2 | 0.00 | 0.00 | 0.00 | 73 | 1024.1 |
| 20260510053610 | 17 | 261 | 1.6 | 9.7 | 0.00 | 0.00 | 0.00 | 72 | 1024.1 |
| 20260510053106 | 17 | 261 | 3.2 | 9.7 | 0.00 | 0.00 | 0.00 | 72 | 1024.1 |
| 20260510052604 | 17 | 302 | 4.8 | 9.7 | 0.00 | 0.00 | 0.00 | 72 | 1024.1 |
| 20260510052105 | 18 | 342 | 4.8 | 9.7 | 0.00 | 0.00 | 0.00 | 71 | 1024.0 |
| 20260510051600 | 18 | 298 | 4.8 | 12.9 | 0.00 | 0.00 | 0.00 | 71 | 1024.0 |
| 20260510051100 | 18 | 321 | 4.8 | 12.9 | 0.00 | 0.00 | 0.00 | 70 | 1024.0 |
| 20260510050602 | 18 | 340 | 4.8 | 11.3 | 0.00 | 0.00 | 0.00 | 69 | 1023.9 |
| 20260510050100 | 18 | 17 | 1.6 | 8.0 | 0.00 | 0.00 | 0.00 | 69 | 1023.8 |
| 20260510045558 | 18 | 315 | 1.6 | 4.8 | 0.00 | 0.00 | 0.00 | 68 | 1023.9 |
| 20260510045058 | 18 | 279 | 1.6 | 4.8 | 0.00 | 0.00 | 0.00 | 68 | 1023.9 |
| 20260510044556 | 18 | 257 | 1.6 | 9.7 | 0.00 | 0.00 | 0.00 | 68 | 1023.8 |
| 20260510044056 | 19 | 269 | 1.6 | 9.7 | 0.00 | 0.00 | 0.00 | 67 | 1023.7 |
| 20260510043557 | 19 | 267 | 1.6 | 6.4 | 0.00 | 0.00 | 0.00 | 67 | 1023.7 |
| 20260510043054 | 19 | 267 | 3.2 | 6.4 | 0.00 | 0.00 | 0.00 | 66 | 1023.6 |
| 20260510042552 | 19 | 265 | 3.2 | 8.0 | 0.00 | 0.00 | 0.00 | 65 | 1023.6 |
| 20260510042052 | 20 | 261 | 3.2 | 9.7 | 0.00 | 0.00 | 0.00 | 65 | 1023.6 |
| 20260510041547 | 20 | 305 | 4.8 | 9.7 | 0.00 | 0.00 | 0.00 | 65 | 1023.6 |
| 20260510041046 | 20 | 308 | 4.8 | 9.7 | 0.00 | 0.00 | 0.00 | 64 | 1023.5 |
| 20260510040546 | 20 | 302 | 3.2 | 9.7 | 0.00 | 0.00 | 0.00 | 64 | 1023.5 |
| 20260510040046 | 20 | 288 | 3.2 | 11.3 | 0.00 | 0.00 | 0.00 | 63 | 1023.3 |
| 20260510035551 | 20 | 271 | 3.2 | 11.3 | 0.00 | 0.00 | 0.00 | 63 | 1023.2 |
| 20260510035046 | 21 | 285 | 3.2 | 4.8 | 0.00 | 0.00 | 0.00 | 62 | 1023.2 |
| 20260510034544 | 21 | 296 | 1.6 | 4.8 | 0.00 | 0.00 | 0.00 | 61 | 1023.2 |
| 20260510034044 | 21 | 291 | 1.6 | 4.8 | 0.00 | 0.00 | 0.00 | 60 | 1023.1 |
| 20260510033545 | 21 | 250 | 3.2 | 11.3 | 0.00 | 0.00 | 0.00 | 59 | 1023.0 |
| 20260510033042 | 22 | 257 | 4.8 | 11.3 | 0.00 | 0.00 | 0.00 | 58 | 1023.0 |
| 20260510032540 | 22 | 288 | 4.8 | 11.3 | 0.00 | 0.00 | 0.00 | 57 | 1023.0 |
| 20260510032040 | 22 | 279 | 4.8 | 11.3 | 0.00 | 0.00 | 0.00 | 55 | 1022.9 |
| 20260510031538 | 23 | 298 | 1.6 | 6.4 | 0.00 | 0.00 | 0.00 | 50 | 1022.9 |
| 20260510031036 | 23 | 275 | 0.0 | 0.0 | 0.00 | 0.00 | 0.00 | 48 | 1022.9 |
| 20260510030534 | 23 | 275 | 0.0 | 3.2 | 0.00 | 0.00 | 0.00 | 48 | 1022.9 |
| 20260510030035 | 24 | 275 | 0.0 | 3.2 | 0.00 | 0.00 | 0.00 | 47 | 1022.7 |
| 20260510025534 | 24 | 275 | 0.0 | 1.6 | 0.00 | 0.00 | 0.00 | 47 | 1022.8 |
| 20260510025035 | 25 | 275 | 0.0 | 1.6 | 0.00 | 0.00 | 0.00 | 48 | 1022.7 |
| 20260510024532 | 25 | 275 | 0.0 | 3.2 | 0.00 | 0.00 | 0.00 | 46 | 1022.7 |
| 20260510024029 | 25 | 275 | 0.0 | 4.8 | 0.00 | 0.00 | 0.00 | 46 | 1022.7 |
| 20260510023530 | 25 | 275 | 1.6 | 4.8 | 0.00 | 0.00 | 0.00 | 46 | 1022.8 |
| 20260510023031 | 25 | 275 | 1.6 | 4.8 | 0.00 | 0.00 | 0.00 | 44 | 1022.8 |
| 20260510022528 | 25 | 275 | 1.6 | 4.8 | 0.00 | 0.00 | 0.00 | 44 | 1022.8 |
| 20260510022027 | 25 | 336 | 0.0 | 4.8 | 0.00 | 0.00 | 0.00 | 43 | 1022.8 |
| 20260510021522 | 25 | 83 | 0.0 | 4.8 | 0.00 | 0.00 | 0.00 | 45 | 1022.9 |
| 20260510021021 | 26 | 81 | 1.6 | 4.8 | 0.00 | 0.00 | 0.00 | 45 | 1022.7 |
| 20260510020517 | 26 | 9 | 1.6 | 6.4 | 0.00 | 0.00 | 0.00 | 44 | 1022.7 |
| 20260510020015 | 26 | 42 | 1.6 | 6.4 | 0.00 | 0.00 | 0.00 | 43 | 1022.8 |
| 20260510015517 | 26 | 82 | 0.0 | 4.8 | 0.00 | 0.00 | 0.00 | 43 | 1022.8 |
| 20260510015009 | 26 | 35 | 1.6 | 6.4 | 0.00 | 0.00 | 0.00 | 42 | 1022.8 |
| 20260510014509 | 26 | 37 | 1.6 | 6.4 | 0.00 | 0.00 | 0.00 | 41 | 1022.8 |
| 20260510014010 | 26 | 28 | 1.6 | 6.4 | 0.00 | 0.00 | 0.00 | 39 | 1022.9 |
| 20260510013514 | 26 | 5 | 1.6 | 8.0 | 0.00 | 0.00 | 0.00 | 41 | 1022.9 |
| 20260510013010 | 26 | 21 | 1.6 | 8.0 | 0.00 | 0.00 | 0.00 | 40 | 1023.1 |
| 20260510012511 | 26 | 311 | 3.2 | 6.4 | 0.00 | 0.00 | 0.00 | 38 | 1023.1 |
| 20260510012005 | 26 | 308 | 3.2 | 6.4 | 0.00 | 0.00 | 0.00 | 39 | 1023.0 |
| 20260510011510 | 26 | 325 | 1.6 | 8.0 | 0.00 | 0.00 | 0.00 | 39 | 1023.0 |
| 20260510011004 | 26 | 306 | 3.2 | 11.3 | 0.00 | 0.00 | 0.00 | 41 | 1023.1 |
| 20260510010504 | 26 | 38 | 1.6 | 11.3 | 0.00 | 0.00 | 0.00 | 41 | 1023.1 |
| 20260510010004 | 26 | 24 | 1.6 | 9.7 | 0.00 | 0.00 | 0.00 | 42 | 1023.2 |
| 20260510005505 | 26 | 286 | 1.6 | 9.7 | 0.00 | 0.00 | 0.00 | 40 | 1023.1 |
| 20260510004958 | 26 | 86 | 1.6 | 12.9 | 0.00 | 0.00 | 0.00 | 40 | 1023.3 |
| 20260510004457 | 26 | 42 | 3.2 | 12.9 | 0.00 | 0.00 | 0.00 | 40 | 1023.3 |
| 20260510003958 | 26 | 60 | 3.2 | 9.7 | 0.00 | 0.00 | 0.00 | 41 | 1023.3 |
| 20260510003458 | 26 | 24 | 1.6 | 8.0 | 0.00 | 0.00 | 0.00 | 40 | 1023.3 |
| 20260510002958 | 26 | 294 | 1.6 | 8.0 | 0.00 | 0.00 | 0.00 | 41 | 1023.4 |
| 20260510002458 | 26 | 40 | 1.6 | 6.4 | 0.00 | 0.00 | 0.00 | 40 | 1023.4 |
| 20260510001955 | 27 | 279 | 1.6 | 6.4 | 0.00 | 0.00 | 0.00 | 41 | 1023.5 |
| 20260510001454 | 27 | 298 | 3.2 | 11.3 | 0.00 | 0.00 | 0.00 | 41 | 1023.5 |
| 20260510000955 | 27 | 291 | 3.2 | 11.3 | 0.00 | 0.00 | 0.00 | 42 | 1023.5 |
| 20260510000455 | 27 | 0 | 3.2 | 11.3 | 0.00 | 0.00 | 0.00 | 41 | 1023.6 |
| 20260509235952 | 27 | 286 | 3.2 | 11.3 | 0.00 | 0.00 | 0.00 | 42 | 1023.6 |
| 20260509235453 | 27 | 11 | 3.2 | 8.0 | 0.00 | 0.00 | 0.00 | 43 | 1023.7 |
| 20260509234947 | 26 | 78 | 3.2 | 12.9 | 0.00 | 0.00 | 0.00 | 45 | 1023.7 |
| 20260509234445 | 26 | 276 | 3.2 | 12.9 | 0.00 | 0.00 | 0.00 | 44 | 1023.7 |
| 20260509233946 | 26 | 44 | 1.6 | 8.0 | 0.00 | 0.00 | 0.00 | 48 | 1023.8 |
| 20260509233444 | 26 | 13 | 4.8 | 12.9 | 0.00 | 0.00 | 0.00 | 41 | 1023.9 |
| 20260509232944 | 26 | 37 | 4.8 | 12.9 | 0.00 | 0.00 | 0.00 | 43 | 1023.8 |
| 20260509232445 | 26 | 267 | 3.2 | 8.0 | 0.00 | 0.00 | 0.00 | 44 | 1023.9 |
| 20260509231945 | 26 | 0 | 3.2 | 8.0 | 0.00 | 0.00 | 0.00 | 43 | 1024.0 |
| 20260509231444 | 26 | 301 | 3.2 | 8.0 | 0.00 | 0.00 | 0.00 | 44 | 1024.1 |
| 20260509230944 | 26 | 66 | 3.2 | 16.1 | 0.00 | 0.00 | 0.00 | 46 | 1024.1 |
| 20260509230444 | 26 | 31 | 4.8 | 16.1 | 0.00 | 0.00 | 0.00 | 48 | 1024.1 |
| 20260509225943 | 26 | 9 | 3.2 | 9.7 | 0.00 | 0.00 | 0.00 | 48 | 1024.3 |
| 20260509225442 | 26 | 328 | 3.2 | 9.7 | 0.00 | 0.00 | 0.00 | 48 | 1024.3 |
| 20260509224942 | 26 | 77 | 4.8 | 14.5 | 0.00 | 0.00 | 0.00 | 47 | 1024.4 |
| 20260509224443 | 26 | 5 | 4.8 | 14.5 | 0.00 | 0.00 | 0.00 | 43 | 1024.5 |
| 20260509223939 | 26 | 51 | 3.2 | 12.9 | 0.00 | 0.00 | 0.00 | 47 | 1024.4 |
| 20260509223440 | 26 | 46 | 3.2 | 12.9 | 0.00 | 0.00 | 0.00 | 50 | 1024.5 |
| 20260509222940 | 26 | 54 | 4.8 | 9.7 | 0.00 | 0.00 | 0.00 | 49 | 1024.7 |
| 20260509222439 | 25 | 5 | 4.8 | 14.5 | 0.00 | 0.00 | 0.00 | 50 | 1024.8 |
| 20260509221940 | 25 | 27 | 4.8 | 14.5 | 0.00 | 0.00 | 0.00 | 50 | 1024.9 |
| 20260509221440 | 25 | 338 | 4.8 | 14.5 | 0.00 | 0.00 | 0.00 | 49 | 1025.0 |
| 20260509220940 | 25 | 335 | 6.4 | 16.1 | 0.00 | 0.00 | 0.00 | 51 | 1025.0 |
| 20260509220436 | 25 | 279 | 6.4 | 16.1 | 0.00 | 0.00 | 0.00 | 50 | 1025.2 |
| 20260509215937 | 25 | 24 | 4.8 | 14.5 | 0.00 | 0.00 | 0.00 | 52 | 1025.2 |
| 20260509215436 | 25 | 281 | 4.8 | 12.9 | 0.00 | 0.00 | 0.00 | 50 | 1025.4 |
| 20260509214935 | 25 | 221 | 6.4 | 16.1 | 0.00 | 0.00 | 0.00 | 53 | 1025.5 |
| 20260509214437 | 25 | 338 | 4.8 | 16.1 | 0.00 | 0.00 | 0.00 | 53 | 1025.5 |
| 20260509213931 | 25 | 41 | 4.8 | 12.9 | 0.00 | 0.00 | 0.00 | 53 | 1025.5 |
| 20260509213433 | 25 | 311 | 4.8 | 14.5 | 0.00 | 0.00 | 0.00 | 54 | 1025.6 |
| 20260509212932 | 25 | 5 | 6.4 | 14.5 | 0.00 | 0.00 | 0.00 | 54 | 1025.6 |
| 20260509212431 | 24 | 61 | 4.8 | 12.9 | 0.00 | 0.00 | 0.00 | 56 | 1025.7 |
| 20260509211931 | 24 | 265 | 4.8 | 14.5 | 0.00 | 0.00 | 0.00 | 58 | 1025.8 |
| 20260509211432 | 24 | 311 | 4.8 | 14.5 | 0.00 | 0.00 | 0.00 | 57 | 1025.7 |
| 20260509210928 | 23 | 43 | 4.8 | 14.5 | 0.00 | 0.00 | 0.00 | 59 | 1025.8 |
| 20260509210427 | 23 | 20 | 4.8 | 14.5 | 0.00 | 0.00 | 0.00 | 58 | 1025.8 |
| 20260509205928 | 23 | 342 | 4.8 | 14.5 | 0.00 | 0.00 | 0.00 | 59 | 1025.9 |
| 20260509205427 | 23 | 319 | 4.8 | 14.5 | 0.00 | 0.00 | 0.00 | 60 | 1025.9 |
| 20260509204928 | 23 | 321 | 3.2 | 12.9 | 0.00 | 0.00 | 0.00 | 59 | 1026.0 |
| 20260509204427 | 23 | 338 | 4.8 | 12.9 | 0.00 | 0.00 | 0.00 | 62 | 1025.9 |
| 20260509203933 | 22 | 255 | 4.8 | 9.7 | 0.00 | 0.00 | 0.00 | 60 | 1026.0 |
| 20260509203424 | 22 | 292 | 3.2 | 12.9 | 0.00 | 0.00 | 0.00 | 62 | 1026.2 |
| 20260509202923 | 22 | 0 | 4.8 | 12.9 | 0.00 | 0.00 | 0.00 | 62 | 1026.3 |
| 20260509202421 | 22 | 5 | 4.8 | 12.9 | 0.00 | 0.00 | 0.00 | 60 | 1026.3 |
| 20260509201921 | 22 | 265 | 4.8 | 12.9 | 0.00 | 0.00 | 0.00 | 62 | 1026.4 |
| 20260509201421 | 22 | 316 | 3.2 | 12.9 | 0.00 | 0.00 | 0.00 | 63 | 1026.6 |
| 20260509200921 | 22 | 345 | 4.8 | 14.5 | 0.00 | 0.00 | 0.00 | 60 | 1026.6 |
| 20260509200417 | 22 | 355 | 4.8 | 14.5 | 0.00 | 0.00 | 0.00 | 59 | 1026.7 |
| 20260509195916 | 22 | 34 | 3.2 | 12.9 | 0.00 | 0.00 | 0.00 | 60 | 1026.7 |
| 20260509195417 | 21 | 99 | 3.2 | 14.5 | 0.00 | 0.00 | 0.00 | 60 | 1027.0 |
| 20260509194915 | 21 | 277 | 4.8 | 14.5 | 0.00 | 0.00 | 0.00 | 62 | 1027.0 |
| 20260509194413 | 21 | 274 | 4.8 | 16.1 | 0.00 | 0.00 | 0.00 | 62 | 1027.0 |
| 20260509193913 | 21 | 31 | 4.8 | 16.1 | 0.00 | 0.00 | 0.00 | 62 | 1027.0 |
| 20260509193408 | 21 | 56 | 4.8 | 12.9 | 0.00 | 0.00 | 0.00 | 64 | 1027.2 |
| 20260509192908 | 21 | 0 | 4.8 | 9.7 | 0.00 | 0.00 | 0.00 | 66 | 1027.1 |
| 20260509192413 | 21 | 0 | 4.8 | 12.9 | 0.00 | 0.00 | 0.00 | 63 | 1027.1 |
| 20260509191911 | 21 | 0 | 4.8 | 14.5 | 0.00 | 0.00 | 0.00 | 66 | 1027.2 |
| 20260509191407 | 21 | 5 | 4.8 | 14.5 | 0.00 | 0.00 | 0.00 | 65 | 1027.3 |
| 20260509190907 | 21 | 27 | 4.8 | 12.9 | 0.00 | 0.00 | 0.00 | 66 | 1027.3 |
| 20260509190401 | 21 | 351 | 6.4 | 12.9 | 0.00 | 0.00 | 0.00 | 68 | 1027.3 |
| 20260509185901 | 21 | 26 | 4.8 | 12.9 | 0.00 | 0.00 | 0.00 | 67 | 1027.5 |
| 20260509185401 | 20 | 317 | 4.8 | 11.3 | 0.00 | 0.00 | 0.00 | 67 | 1027.4 |
| 20260509184901 | 20 | 351 | 4.8 | 11.3 | 0.00 | 0.00 | 0.00 | 67 | 1027.4 |
| 20260509184401 | 20 | 347 | 4.8 | 14.5 | 0.00 | 0.00 | 0.00 | 68 | 1027.6 |
| 20260509183902 | 20 | 0 | 4.8 | 14.5 | 0.00 | 0.00 | 0.00 | 68 | 1027.7 |
| 20260509183358 | 20 | 0 | 6.4 | 17.7 | 0.00 | 0.00 | 0.00 | 67 | 1027.8 |
| 20260509182857 | 19 | 23 | 4.8 | 17.7 | 0.00 | 0.00 | 0.00 | 69 | 1027.8 |
| 20260509182355 | 19 | 5 | 4.8 | 12.9 | 0.00 | 0.00 | 0.00 | 71 | 1027.9 |
| 20260509181855 | 19 | 83 | 6.4 | 14.5 | 0.00 | 0.00 | 0.00 | 69 | 1027.8 |
| 20260509181355 | 19 | 303 | 4.8 | 14.5 | 0.00 | 0.00 | 0.00 | 71 | 1027.9 |
| 20260509180856 | 18 | 289 | 6.4 | 14.5 | 0.00 | 0.00 | 0.00 | 72 | 1027.9 |
| 20260509180353 | 18 | 324 | 6.4 | 14.5 | 0.00 | 0.00 | 0.00 | 72 | 1027.9 |
| 20260509175851 | 18 | 231 | 4.8 | 12.9 | 0.00 | 0.00 | 0.00 | 72 | 1027.9 |
| 20260509175352 | 18 | 333 | 4.8 | 12.9 | 0.00 | 0.00 | 0.00 | 74 | 1027.9 |
| 20260509174853 | 18 | 325 | 4.8 | 14.5 | 0.00 | 0.00 | 0.00 | 74 | 1027.9 |
| 20260509174349 | 18 | 288 | 4.8 | 14.5 | 0.00 | 0.00 | 0.00 | 73 | 1027.8 |
| 20260509173850 | 18 | 0 | 4.8 | 14.5 | 0.00 | 0.00 | 0.00 | 74 | 1028.0 |
| 20260509173343 | 17 | 52 | 3.2 | 9.7 | 0.00 | 0.00 | 0.00 | 74 | 1028.0 |
| 20260509172843 | 17 | 252 | 4.8 | 9.7 | 0.00 | 0.00 | 0.00 | 75 | 1028.0 |
| 20260509172343 | 17 | 76 | 4.8 | 9.7 | 0.00 | 0.00 | 0.00 | 75 | 1028.1 |
| 20260509171843 | 17 | 69 | 4.8 | 9.7 | 0.00 | 0.00 | 0.00 | 77 | 1028.1 |
| 20260509171342 | 16 | 342 | 4.8 | 12.9 | 0.00 | 0.00 | 0.00 | 78 | 1028.2 |
| 20260509170844 | 16 | 321 | 4.8 | 12.9 | 0.00 | 0.00 | 0.00 | 77 | 1028.3 |
| 20260509170338 | 16 | 33 | 4.8 | 11.3 | 0.00 | 0.00 | 0.00 | 77 | 1028.3 |
| 20260509165837 | 16 | 17 | 3.2 | 8.0 | 0.00 | 0.00 | 0.00 | 80 | 1028.3 |
| 20260509165337 | 16 | 34 | 4.8 | 9.7 | 0.00 | 0.00 | 0.00 | 80 | 1028.3 |
| 20260509164837 | 15 | 12 | 3.2 | 9.7 | 0.00 | 0.00 | 0.00 | 80 | 1028.4 |
| 20260509164337 | 15 | 5 | 3.2 | 8.0 | 0.00 | 0.00 | 0.00 | 82 | 1028.4 |
| 20260509163837 | 15 | 70 | 4.8 | 9.7 | 0.00 | 0.00 | 0.00 | 81 | 1028.5 |
| 20260509163332 | 15 | 24 | 4.8 | 12.9 | 0.00 | 0.00 | 0.00 | 82 | 1028.7 |
| 20260509162831 | 15 | 290 | 4.8 | 12.9 | 0.00 | 0.00 | 0.00 | 82 | 1028.8 |
| 20260509162331 | 15 | 11 | 3.2 | 9.7 | 0.00 | 0.00 | 0.00 | 83 | 1028.9 |
| 20260509161831 | 15 | 284 | 3.2 | 8.0 | 0.00 | 0.00 | 0.00 | 83 | 1029.1 |
| 20260509161331 | 14 | 5 | 4.8 | 11.3 | 0.00 | 0.00 | 0.00 | 83 | 1029.1 |
| 20260509160832 | 14 | 31 | 4.8 | 11.3 | 0.00 | 0.00 | 0.00 | 83 | 1029.2 |
| 20260509160328 | 14 | 344 | 3.2 | 9.7 | 0.00 | 0.00 | 0.00 | 83 | 1029.1 |
| 20260509155826 | 13 | 259 | 3.2 | 8.0 | 0.00 | 0.00 | 0.00 | 84 | 1029.1 |
| 20260509155325 | 13 | 61 | 4.8 | 11.3 | 0.00 | 0.00 | 0.00 | 84 | 1029.0 |
| 20260509154826 | 13 | 52 | 4.8 | 14.5 | 0.00 | 0.00 | 0.00 | 84 | 1029.0 |
| 20260509154325 | 13 | 0 | 4.8 | 14.5 | 0.00 | 0.00 | 0.00 | 85 | 1029.0 |